CDT,Max TemperatureF,Mean TemperatureF,Min TemperatureF,Max Dew PointF,MeanDew PointF,Min DewpointF,Max Humidity, Mean Humidity, Min Humidity, Max Sea Level PressureIn, Mean Sea Level PressureIn, Min Sea Level PressureIn, Max VisibilityMiles, Mean VisibilityMiles, Min VisibilityMiles, Max Wind SpeedMPH, Mean Wind SpeedMPH, Max Gust SpeedMPH,PrecipitationIn, CloudCover, Events, WindDirDegrees
2013-8-1,88,75,61,68,63,56,93,64,34,30.09,30.01,29.85,10,9,7,35,8,39,0.18,5,Fog-Rain-Thunderstorm,174
2013-8-2,85,76,66,66,64,60,87,69,51,30.02,29.91,29.85,10,10,10,16,6,24,0.00,5,,58
2013-8-3,81,72,62,59,57,54,84,63,42,30.18,30.11,30.03,10,10,10,13,6,20,0.00,6,,25
2013-8-4,81,70,58,65,59,54,79,64,48,30.18,30.10,30.02,10,10,10,20,10,24,0.00,6,,144
2013-8-5,87,79,70,73,69,64,93,77,61,30.03,29.92,29.83,10,9,4,18,7,22,0.02,7,Rain,178
2013-8-6,90,78,66,74,69,64,100,74,47,29.97,29.83,29.78,10,9,1,28,7,39,0.37,5,Fog-Rain-Thunderstorm,337
2013-8-7,85,76,67,72,65,59,97,70,43,29.99,29.92,29.81,10,10,6,14,7,18,0.00,5,,354
2013-8-8,80,73,65,64,61,58,81,65,48,30.03,30.00,29.94,10,10,10,14,4,16,0.00,7,,109
2013-8-9,81,71,61,66,62,57,93,69,45,30.14,30.06,30.02,10,10,7,13,5,17,0.00,5,Fog,18
2013-8-10,85,71,57,61,58,56,100,70,40,30.20,30.15,30.07,10,10,7,16,7,24,0.00,2,Fog,173
2013-8-11,89,77,65,69,63,59,84,65,46,30.11,30.05,29.98,10,10,10,16,8,22,T,5,Rain,185
2013-8-12,87,77,66,69,63,55,93,64,35,30.07,30.01,29.99,10,9,4,15,8,23,0.00,5,,7
2013-8-13,83,71,59,60,57,52,93,64,34,30.17,30.12,30.08,10,10,10,13,5,18,0.00,5,,360
2013-8-14,77,69,60,58,55,53,78,62,46,30.20,30.15,30.08,10,10,10,13,8,17,T,5,Rain,123
2013-8-15,68,65,61,59,58,56,90,79,68,30.12,30.08,30.05,10,8,2,22,12,26,1.12,8,Rain,123
2013-8-16,75,69,63,60,57,54,84,67,49,30.18,30.15,30.11,10,10,10,15,7,18,T,7,Rain,125
2013-8-17,80,71,61,61,56,53,90,66,42,30.19,30.15,30.11,10,10,10,17,7,24,0.00,4,,143
2013-8-18,81,69,56,61,57,55,93,69,45,30.16,30.11,30.04,10,10,7,20,8,24,0.00,1,,162
2013-8-19,86,76,66,67,64,61,81,66,51,30.05,29.99,29.92,10,9,7,23,12,29,0.00,4,,167
2013-8-20,90,80,70,70,67,66,90,69,47,29.96,29.92,29.88,10,8,7,20,13,25,0.00,1,,177
2013-8-21,93,82,71,72,68,65,84,64,44,29.98,29.94,29.91,10,8,7,20,11,25,0.00,3,,175
2013-8-22,85,78,71,70,67,64,84,71,58,30.09,30.04,29.99,10,10,7,28,5,37,0.03,7,Rain,92
2013-8-23,91,81,70,70,67,63,84,64,43,30.07,30.02,29.96,10,9,7,21,10,26,0.00,6,,145
2013-8-24,92,84,75,71,69,66,79,66,52,30.05,30.01,29.97,10,10,8,28,16,35,T,6,Rain,163
2013-8-25,97,86,74,73,70,69,87,65,42,30.11,30.05,30.01,10,10,8,22,14,28,0.00,1,,171
2013-8-26,97,86,74,70,69,67,87,63,38,30.06,30.00,29.92,10,10,8,22,13,29,0.00,2,,176
2013-8-27,99,88,76,68,66,65,69,51,33,29.93,29.90,29.86,10,10,10,21,11,26,0.00,0,,189
2013-8-28,97,84,71,67,64,56,79,52,25,29.97,29.95,29.91,10,10,10,18,8,21,0.00,2,,166
2013-8-29,98,86,74,73,69,65,84,60,35,29.99,29.93,29.87,10,10,10,18,9,22,0.00,2,,154
2013-8-30,99,87,74,76,71,65,94,65,35,29.88,29.85,29.81,10,10,8,17,7,20,0.00,0,,52
2013-8-31,95,83,71,72,69,63,93,65,36,29.88,29.82,29.76,10,10,10,12,5,,0.00,5,,61